| time (UTC) | temp F | wind direction | speed knots | gust knots | rain 1hr in | rain 24hr in | rain mn in | humidity % | barometer mb |
| 20260505235505 | 75 | 240 | 2.6 | 7.0 | 0.00 | 0.00 | 0.00 | 52 | 1013.4 |
| 20260505235007 | 75 | 250 | 1.7 | 5.2 | 0.00 | 0.00 | 0.00 | 52 | 1013.3 |
| 20260505234505 | 75 | 213 | 1.7 | 10.4 | 0.00 | 0.00 | 0.00 | 50 | 1013.3 |
| 20260505234006 | 76 | 207 | 1.7 | 6.1 | 0.00 | 0.00 | 0.00 | 49 | 1013.2 |
| 20260505233505 | 76 | 213 | 1.7 | 8.7 | 0.00 | 0.00 | 0.00 | 49 | 1013.3 |
| 20260505233218 | 76 | 256 | 2.6 | 10.4 | 0.00 | 0.00 | 0.00 | 48 | 1013.3 |
| 20260505232504 | 77 | 204 | 2.6 | 17.4 | 0.00 | 0.00 | 0.00 | 47 | 1013.2 |
| 20260505232005 | 77 | 241 | 2.6 | 10.4 | 0.00 | 0.00 | 0.00 | 48 | 1013.3 |
| 20260505231504 | 77 | 162 | 1.7 | 11.3 | 0.00 | 0.00 | 0.00 | 48 | 1013.2 |
| 20260505231006 | 78 | 240 | 8.7 | 14.8 | 0.00 | 0.00 | 0.00 | 47 | 1013.2 |
| 20260505230505 | 78 | 217 | 3.5 | 7.8 | 0.00 | 0.00 | 0.00 | 46 | 1013.1 |
| 20260505230006 | 79 | 214 | 2.6 | 6.1 | 0.00 | 0.00 | 0.00 | 45 | 1013.0 |
| 20260505225506 | 79 | 220 | 4.3 | 10.4 | 0.00 | 0.00 | 0.00 | 43 | 1013.1 |
| 20260505225005 | 80 | 225 | 2.6 | 8.7 | 0.00 | 0.00 | 0.00 | 42 | 1013.1 |
| 20260505224506 | 80 | 248 | 2.6 | 13.9 | 0.00 | 0.00 | 0.00 | 42 | 1012.9 |
| 20260505224006 | 81 | 238 | 5.2 | 13.0 | 0.00 | 0.00 | 0.00 | 41 | 1013.0 |
| 20260505223505 | 81 | 234 | 3.5 | 13.0 | 0.00 | 0.00 | 0.00 | 40 | 1013.1 |
| 20260505223007 | 81 | 218 | 5.2 | 15.6 | 0.00 | 0.00 | 0.00 | 40 | 1013.0 |
| 20260505222505 | 81 | 234 | 3.5 | 10.4 | 0.00 | 0.00 | 0.00 | 40 | 1012.9 |
| 20260505222005 | 81 | 231 | 4.3 | 10.4 | 0.00 | 0.00 | 0.00 | 40 | 1012.9 |
| 20260505221716 | 80 | 96 | 1.7 | 10.4 | 0.00 | 0.00 | 0.00 | 41 | 1012.9 |
| 20260505221006 | 81 | 247 | 4.3 | 12.2 | 0.00 | 0.00 | 0.00 | 39 | 1013.0 |
| 20260505220505 | 81 | 247 | 2.6 | 8.7 | 0.00 | 0.00 | 0.00 | 39 | 1012.9 |
| 20260505220006 | 81 | 277 | 4.3 | 14.8 | 0.00 | 0.00 | 0.00 | 39 | 1013.0 |
| 20260505215504 | 82 | 250 | 7.8 | 15.6 | 0.00 | 0.00 | 0.00 | 37 | 1012.8 |
| 20260505215007 | 82 | 188 | 5.2 | 17.4 | 0.00 | 0.00 | 0.00 | 36 | 1012.8 |
| 20260505214505 | 82 | 152 | 2.6 | 12.2 | 0.00 | 0.00 | 0.00 | 36 | 1012.8 |
| 20260505214005 | 84 | 183 | 3.5 | 14.8 | 0.00 | 0.00 | 0.00 | 35 | 1012.9 |
| 20260505213506 | 83 | 213 | 5.2 | 19.1 | 0.00 | 0.00 | 0.00 | 36 | 1012.9 |
| 20260505213006 | 82 | 213 | 2.6 | 10.4 | 0.00 | 0.00 | 0.00 | 36 | 1012.9 |
| 20260505212716 | 82 | 232 | 6.1 | 13.0 | 0.00 | 0.00 | 0.00 | 36 | 1012.8 |
| 20260505212005 | 82 | 211 | 2.6 | 13.0 | 0.00 | 0.00 | 0.00 | 36 | 1012.8 |
| 20260505211505 | 84 | 239 | 5.2 | 13.0 | 0.00 | 0.00 | 0.00 | 34 | 1012.7 |
| 20260505211006 | 85 | 232 | 4.3 | 11.3 | 0.00 | 0.00 | 0.00 | 33 | 1012.7 |
| 20260505210504 | 85 | 256 | 2.6 | 13.0 | 0.00 | 0.00 | 0.00 | 33 | 1012.7 |
| 20260505210006 | 85 | 240 | 6.1 | 21.7 | 0.00 | 0.00 | 0.00 | 32 | 1012.8 |
| 20260505205716 | 85 | 217 | 6.1 | 13.9 | 0.00 | 0.00 | 0.00 | 32 | 1012.7 |
| 20260505205215 | 86 | 188 | 2.6 | 12.2 | 0.00 | 0.00 | 0.00 | 31 | 1012.7 |
| 20260505204505 | 87 | 213 | 5.2 | 12.2 | 0.00 | 0.00 | 0.00 | 31 | 1012.6 |
| 20260505204005 | 86 | 235 | 5.2 | 17.4 | 0.00 | 0.00 | 0.00 | 31 | 1012.6 |
| 20260505203506 | 86 | 222 | 4.3 | 12.2 | 0.00 | 0.00 | 0.00 | 32 | 1012.6 |
| 20260505203217 | 86 | 241 | 5.2 | 13.9 | 0.00 | 0.00 | 0.00 | 31 | 1012.6 |
| 20260505202716 | 86 | 346 | 2.6 | 13.9 | 0.00 | 0.00 | 0.00 | 33 | 1012.7 |
| 20260505202217 | 86 | 211 | 8.7 | 24.3 | 0.00 | 0.00 | 0.00 | 32 | 1012.6 |
| 20260505201505 | 87 | 225 | 1.7 | 10.4 | 0.00 | 0.00 | 0.00 | 32 | 1012.8 |
| 20260505201005 | 86 | 233 | 6.1 | 14.8 | 0.00 | 0.00 | 0.00 | 30 | 1012.9 |
| 20260505200506 | 87 | 185 | 4.3 | 12.2 | 0.00 | 0.00 | 0.00 | 32 | 1013.0 |
| 20260505200006 | 87 | 199 | 5.2 | 13.0 | 0.00 | 0.00 | 0.00 | 31 | 1012.9 |
| 20260505195506 | 88 | 133 | 2.6 | 12.2 | 0.00 | 0.00 | 0.00 | 31 | 1012.9 |
| 20260505195215 | 87 | 332 | 4.3 | 13.9 | 0.00 | 0.00 | 0.00 | 32 | 1013.1 |
| 20260505194715 | 86 | 265 | 5.2 | 17.4 | 0.00 | 0.00 | 0.00 | 31 | 1013.2 |
| 20260505194006 | 87 | 216 | 3.5 | 8.7 | 0.00 | 0.00 | 0.00 | 32 | 1013.1 |
| 20260505193715 | 86 | 252 | 6.1 | 14.8 | 0.00 | 0.00 | 0.00 | 32 | 1013.3 |
| 20260505193007 | 87 | 181 | 2.6 | 13.0 | 0.00 | 0.00 | 0.00 | 32 | 1013.3 |
| 20260505192505 | 86 | 110 | 1.7 | 13.0 | 0.00 | 0.00 | 0.00 | 33 | 1013.4 |
| 20260505192216 | 86 | 171 | 2.6 | 12.2 | 0.00 | 0.00 | 0.00 | 32 | 1013.5 |
| 20260505191505 | 85 | 248 | 7.0 | 14.8 | 0.00 | 0.00 | 0.00 | 32 | 1013.6 |
| 20260505191216 | 86 | 221 | 2.6 | 10.4 | 0.00 | 0.00 | 0.00 | 33 | 1013.8 |
| 20260505190505 | 86 | 163 | 2.6 | 13.0 | 0.00 | 0.00 | 0.00 | 34 | 1013.8 |
| 20260505190006 | 85 | 231 | 2.6 | 10.4 | 0.00 | 0.00 | 0.00 | 33 | 1013.9 |
| 20260505185716 | 86 | 254 | 2.6 | 12.2 | 0.00 | 0.00 | 0.00 | 33 | 1014.0 |
| 20260505185005 | 85 | 232 | 4.3 | 13.0 | 0.00 | 0.00 | 0.00 | 33 | 1014.0 |
| 20260505184506 | 84 | 232 | 6.1 | 12.2 | 0.00 | 0.00 | 0.00 | 34 | 1014.1 |
| 20260505184006 | 84 | 171 | 7.0 | 14.8 | 0.00 | 0.00 | 0.00 | 33 | 1014.0 |
| 20260505183505 | 86 | 176 | 4.3 | 14.8 | 0.00 | 0.00 | 0.00 | 33 | 1014.2 |
| 20260505183008 | 85 | 244 | 4.3 | 13.9 | 0.00 | 0.00 | 0.00 | 35 | 1014.2 |
| 20260505182506 | 85 | 191 | 2.6 | 13.0 | 0.00 | 0.00 | 0.00 | 34 | 1014.3 |
| 20260505182005 | 86 | 263 | 4.3 | 12.2 | 0.00 | 0.00 | 0.00 | 34 | 1014.4 |
| 20260505181505 | 86 | 236 | 6.1 | 13.9 | 0.00 | 0.00 | 0.00 | 33 | 1014.3 |
| 20260505181006 | 85 | 271 | 6.1 | 12.2 | 0.00 | 0.00 | 0.00 | 33 | 1014.4 |
| 20260505180715 | 85 | 218 | 2.6 | 12.2 | 0.00 | 0.00 | 0.00 | 34 | 1014.5 |
| 20260505180005 | 84 | 77 | 4.3 | 13.0 | 0.00 | 0.00 | 0.00 | 34 | 1014.4 |
| 20260505175504 | 85 | 172 | 6.1 | 12.2 | 0.00 | 0.00 | 0.00 | 34 | 1014.5 |
| 20260505175005 | 84 | 148 | 3.5 | 11.3 | 0.00 | 0.00 | 0.00 | 34 | 1014.4 |
| 20260505174505 | 84 | 297 | 2.6 | 11.3 | 0.00 | 0.00 | 0.00 | 34 | 1014.5 |
| 20260505174216 | 82 | 256 | 6.1 | 15.6 | 0.00 | 0.00 | 0.00 | 36 | 1014.5 |
| 20260505173506 | 82 | 237 | 7.0 | 13.9 | 0.00 | 0.00 | 0.00 | 37 | 1014.6 |
| 20260505173216 | 82 | 264 | 3.5 | 12.2 | 0.00 | 0.00 | 0.00 | 37 | 1014.5 |
| 20260505172717 | 82 | 219 | 3.5 | 15.6 | 0.00 | 0.00 | 0.00 | 37 | 1014.6 |
| 20260505172006 | 83 | 255 | 2.6 | 8.7 | 0.00 | 0.00 | 0.00 | 38 | 1014.6 |
| 20260505171505 | 84 | 266 | 4.3 | 12.2 | 0.00 | 0.00 | 0.00 | 38 | 1014.6 |
| 20260505171216 | 83 | 249 | 5.2 | 13.9 | 0.00 | 0.00 | 0.00 | 39 | 1014.7 |
| 20260505170506 | 83 | 256 | 5.2 | 10.4 | 0.00 | 0.00 | 0.00 | 39 | 1014.7 |
| 20260505170005 | 83 | 76 | 1.7 | 11.3 | 0.00 | 0.00 | 0.00 | 40 | 1014.8 |
| 20260505165714 | 80 | 245 | 3.5 | 13.0 | 0.00 | 0.00 | 0.00 | 42 | 1014.8 |
| 20260505165215 | 83 | 240 | 5.2 | 12.2 | 0.00 | 0.00 | 0.00 | 41 | 1014.9 |
| 20260505164504 | 82 | 222 | 1.7 | 11.3 | 0.00 | 0.00 | 0.00 | 40 | 1015.1 |
| 20260505164005 | 81 | 216 | 4.3 | 11.3 | 0.00 | 0.00 | 0.00 | 42 | 1015.3 |
| 20260505163504 | 82 | 272 | 1.7 | 7.0 | 0.00 | 0.00 | 0.00 | 42 | 1015.3 |
| 20260505163215 | 81 | 232 | 2.6 | 12.2 | 0.00 | 0.00 | 0.00 | 42 | 1015.4 |
| 20260505162505 | 83 | 228 | 2.6 | 7.0 | 0.00 | 0.00 | 0.00 | 43 | 1015.4 |
| 20260505162215 | 80 | 109 | 0.9 | 7.8 | 0.00 | 0.00 | 0.00 | 45 | 1015.6 |
| 20260505161505 | 80 | 241 | 1.7 | 8.7 | 0.00 | 0.00 | 0.00 | 44 | 1015.6 |
| 20260505161006 | 81 | 211 | 4.3 | 13.0 | 0.00 | 0.00 | 0.00 | 44 | 1015.7 |
| 20260505160505 | 81 | 247 | 1.7 | 11.3 | 0.00 | 0.00 | 0.00 | 45 | 1015.7 |
| 20260505153006 | 79 | 210 | 1.7 | 7.0 | 0.00 | 0.00 | 0.00 | 48 | 1015.7 |
| 20260505152504 | 76 | 222 | 5.2 | 11.3 | 0.00 | 0.00 | 0.00 | 51 | 1015.8 |
| 20260505152215 | 76 | 263 | 5.2 | 17.4 | 0.00 | 0.00 | 0.00 | 50 | 1015.8 |
| 20260505151505 | 77 | 220 | 6.1 | 8.7 | 0.00 | 0.00 | 0.00 | 50 | 1015.8 |
| 20260505151215 | 76 | 194 | 1.7 | 11.3 | 0.00 | 0.00 | 0.00 | 52 | 1015.8 |
| 20260505150506 | 77 | 262 | 2.6 | 10.4 | 0.00 | 0.00 | 0.00 | 51 | 1015.8 |
| 20260505140505 | 71 | 243 | 7.0 | 12.2 | 0.00 | 0.00 | 0.00 | 57 | 1016.1 |
| 20260505130216 | 67 | 206 | 4.3 | 7.8 | 0.00 | 0.00 | 0.00 | 66 | 1016.5 |
| 20260505125005 | 67 | 238 | 3.5 | 8.7 | 0.00 | 0.00 | 0.00 | 65 | 1016.4 |
| 20260505124216 | 65 | 277 | 5.2 | 13.0 | 0.00 | 0.00 | 0.00 | 69 | 1016.6 |
| 20260505123505 | 65 | 223 | 4.3 | 10.4 | 0.00 | 0.00 | 0.00 | 69 | 1016.5 |
| 20260505123005 | 65 | 224 | 2.6 | 7.8 | 0.00 | 0.00 | 0.00 | 71 | 1016.7 |
| 20260505122505 | 64 | 261 | 4.3 | 10.4 | 0.00 | 0.00 | 0.00 | 71 | 1016.7 |
| 20260505122216 | 64 | 279 | 2.6 | 13.0 | 0.00 | 0.00 | 0.00 | 71 | 1016.6 |
| 20260505121504 | 64 | 299 | 2.6 | 8.7 | 0.00 | 0.00 | 0.00 | 72 | 1016.4 |
| 20260505121006 | 63 | 236 | 2.6 | 8.7 | 0.00 | 0.00 | 0.00 | 73 | 1016.5 |
| 20260505120717 | 63 | 237 | 7.8 | 14.8 | 0.00 | 0.00 | 0.00 | 74 | 1016.6 |
| 20260505120008 | 62 | 232 | 5.2 | 11.3 | 0.00 | 0.00 | 0.00 | 75 | 1016.6 |
| 20260505115505 | 62 | 245 | 4.3 | 11.3 | 0.00 | 0.00 | 0.00 | 76 | 1016.6 |
| 20260505115006 | 61 | 248 | 4.3 | 8.7 | 0.00 | 0.00 | 0.00 | 77 | 1016.6 |
| 20260505114506 | 61 | 225 | 4.3 | 10.4 | 0.00 | 0.00 | 0.00 | 78 | 1016.5 |
| 20260505114005 | 61 | 266 | 5.2 | 13.9 | 0.00 | 0.00 | 0.00 | 78 | 1016.5 |
| 20260505113504 | 61 | 235 | 3.5 | 11.3 | 0.00 | 0.00 | 0.00 | 78 | 1016.5 |
| 20260505113006 | 60 | 157 | 2.6 | 7.8 | 0.00 | 0.00 | 0.00 | 79 | 1016.4 |
| 20260505112504 | 60 | 247 | 6.1 | 12.2 | 0.00 | 0.00 | 0.00 | 79 | 1016.5 |
| 20260505112217 | 60 | 247 | 5.2 | 10.4 | 0.00 | 0.00 | 0.00 | 79 | 1016.4 |
| 20260505111505 | 60 | 248 | 2.6 | 7.0 | 0.00 | 0.00 | 0.00 | 81 | 1016.4 |
| 20260505111006 | 59 | 248 | 1.7 | 8.7 | 0.00 | 0.00 | 0.00 | 80 | 1016.3 |
| 20260505110505 | 59 | 234 | 4.3 | 7.8 | 0.00 | 0.00 | 0.00 | 81 | 1016.2 |
| 20260505102215 | 58 | 239 | 2.6 | 7.0 | 0.00 | 0.00 | 0.00 | 82 | 1016.1 |
| 20260505101505 | 59 | 224 | 2.6 | 7.8 | 0.00 | 0.00 | 0.00 | 81 | 1016.1 |
| 20260505101217 | 59 | 233 | 2.6 | 7.0 | 0.00 | 0.00 | 0.00 | 81 | 1016.0 |
| 20260505100507 | 59 | 248 | 2.6 | 7.0 | 0.00 | 0.00 | 0.00 | 81 | 1015.9 |
| 20260505100006 | 59 | 242 | 2.6 | 6.1 | 0.00 | 0.00 | 0.00 | 81 | 1015.9 |
| 20260505095716 | 59 | 211 | 1.7 | 10.4 | 0.00 | 0.00 | 0.00 | 80 | 1015.9 |
| 20260505095217 | 59 | 224 | 2.6 | 10.4 | 0.00 | 0.00 | 0.00 | 79 | 1015.7 |
| 20260505094504 | 59 | 248 | 4.3 | 8.7 | 0.00 | 0.00 | 0.00 | 79 | 1015.6 |
| 20260505094215 | 60 | 234 | 3.5 | 7.0 | 0.00 | 0.00 | 0.00 | 79 | 1015.6 |
| 20260505093506 | 60 | 245 | 4.3 | 11.3 | 0.00 | 0.00 | 0.00 | 78 | 1015.6 |
| 20260505093006 | 60 | 235 | 2.6 | 8.7 | 0.00 | 0.00 | 0.00 | 79 | 1015.6 |
| 20260505092505 | 60 | 249 | 2.6 | 8.7 | 0.00 | 0.00 | 0.00 | 78 | 1015.6 |
| 20260505092005 | 60 | 240 | 5.2 | 10.4 | 0.00 | 0.00 | 0.00 | 78 | 1015.6 |
| 20260505091505 | 60 | 232 | 4.3 | 10.4 | 0.00 | 0.00 | 0.00 | 78 | 1015.5 |
| 20260505091215 | 60 | 245 | 2.6 | 7.8 | 0.00 | 0.00 | 0.00 | 78 | 1015.5 |
| 20260505090507 | 60 | 251 | 4.3 | 8.7 | 0.00 | 0.00 | 0.00 | 78 | 1015.4 |
| 20260505090006 | 60 | 233 | 2.6 | 7.0 | 0.00 | 0.00 | 0.00 | 78 | 1015.3 |
| 20260505085715 | 61 | 278 | 2.6 | 7.8 | 0.00 | 0.00 | 0.00 | 77 | 1015.3 |
| 20260505085007 | 61 | 241 | 3.5 | 8.7 | 0.00 | 0.00 | 0.00 | 77 | 1015.3 |
| 20260505084506 | 61 | 247 | 3.5 | 10.4 | 0.00 | 0.00 | 0.00 | 77 | 1015.3 |
| 20260505084006 | 61 | 249 | 4.3 | 8.7 | 0.00 | 0.00 | 0.00 | 77 | 1015.4 |
| 20260505083504 | 61 | 255 | 4.3 | 10.4 | 0.00 | 0.00 | 0.00 | 76 | 1015.3 |
| 20260505083006 | 61 | 255 | 4.3 | 7.0 | 0.00 | 0.00 | 0.00 | 76 | 1015.4 |
| 20260505082504 | 61 | 242 | 1.7 | 7.8 | 0.00 | 0.00 | 0.00 | 76 | 1015.4 |
| 20260505082214 | 61 | 249 | 5.2 | 7.8 | 0.00 | 0.00 | 0.00 | 76 | 1015.4 |
| 20260505081505 | 61 | 201 | 4.3 | 11.3 | 0.00 | 0.00 | 0.00 | 76 | 1015.4 |
| 20260505081216 | 61 | 243 | 5.2 | 10.4 | 0.00 | 0.00 | 0.00 | 76 | 1015.4 |
| 20260505080505 | 61 | 234 | 3.5 | 8.7 | 0.00 | 0.00 | 0.00 | 76 | 1015.3 |
| 20260505080006 | 61 | 225 | 4.3 | 7.8 | 0.00 | 0.00 | 0.00 | 76 | 1015.2 |
| 20260505075505 | 61 | 254 | 2.6 | 7.8 | 0.00 | 0.00 | 0.00 | 76 | 1015.2 |
| 20260505075216 | 62 | 271 | 4.3 | 11.3 | 0.00 | 0.00 | 0.00 | 75 | 1015.2 |
| 20260505074504 | 61 | 224 | 2.6 | 12.2 | 0.00 | 0.00 | 0.00 | 76 | 1015.2 |
| 20260505074007 | 61 | 266 | 3.5 | 7.8 | 0.00 | 0.00 | 0.00 | 76 | 1015.2 |
| 20260505073506 | 61 | 256 | 2.6 | 5.2 | 0.00 | 0.00 | 0.00 | 76 | 1015.1 |
| 20260505073006 | 62 | 324 | 2.6 | 6.1 | 0.00 | 0.00 | 0.00 | 75 | 1015.0 |
| 20260505072504 | 62 | 231 | 5.2 | 12.2 | 0.00 | 0.00 | 0.00 | 75 | 1014.9 |
| 20260505072007 | 62 | 271 | 2.6 | 10.4 | 0.00 | 0.00 | 0.00 | 75 | 1014.9 |
| 20260505071505 | 62 | 253 | 5.2 | 13.0 | 0.00 | 0.00 | 0.00 | 76 | 1014.9 |
| 20260505071216 | 62 | 259 | 1.7 | 12.2 | 0.00 | 0.00 | 0.00 | 75 | 1014.9 |
| 20260505070507 | 62 | 233 | 4.3 | 7.8 | 0.00 | 0.00 | 0.00 | 75 | 1014.8 |
| 20260505070006 | 62 | 233 | 5.2 | 12.2 | 0.00 | 0.00 | 0.00 | 75 | 1014.8 |
| 20260505065506 | 62 | 214 | 4.3 | 10.4 | 0.00 | 0.00 | 0.00 | 75 | 1014.7 |
| 20260505065216 | 62 | 232 | 5.2 | 10.4 | 0.00 | 0.00 | 0.00 | 75 | 1014.7 |
| 20260505064505 | 62 | 233 | 3.5 | 8.7 | 0.00 | 0.00 | 0.00 | 74 | 1014.7 |
| 20260505064007 | 62 | 258 | 4.3 | 10.4 | 0.00 | 0.00 | 0.00 | 74 | 1014.8 |
| 20260505063717 | 63 | 232 | 2.6 | 8.7 | 0.00 | 0.00 | 0.00 | 74 | 1014.8 |
| 20260505063005 | 63 | 248 | 3.5 | 11.3 | 0.00 | 0.00 | 0.00 | 74 | 1014.7 |
| 20260505062505 | 63 | 226 | 3.5 | 8.7 | 0.00 | 0.00 | 0.00 | 73 | 1014.8 |
| 20260505062216 | 63 | 249 | 3.5 | 12.2 | 0.00 | 0.00 | 0.00 | 73 | 1014.8 |
| 20260505061505 | 63 | 249 | 2.6 | 12.2 | 0.00 | 0.00 | 0.00 | 73 | 1014.8 |
| 20260505061004 | 64 | 243 | 2.6 | 13.9 | 0.00 | 0.00 | 0.00 | 72 | 1014.8 |
| 20260505060506 | 64 | 231 | 5.2 | 13.9 | 0.00 | 0.00 | 0.00 | 71 | 1014.8 |
| 20260505060215 | 64 | 238 | 4.3 | 10.4 | 0.00 | 0.00 | 0.00 | 72 | 1014.8 |
| 20260505055504 | 64 | 62 | 1.7 | 10.4 | 0.00 | 0.00 | 0.00 | 72 | 1014.9 |
| 20260505055006 | 64 | 235 | 4.3 | 12.2 | 0.00 | 0.00 | 0.00 | 71 | 1014.8 |
| 20260505054716 | 64 | 233 | 5.2 | 13.9 | 0.00 | 0.00 | 0.00 | 72 | 1014.8 |
| 20260505054005 | 64 | 255 | 5.2 | 12.2 | 0.00 | 0.00 | 0.00 | 71 | 1014.8 |
| 20260505053505 | 64 | 254 | 3.5 | 12.2 | 0.00 | 0.00 | 0.00 | 73 | 1014.8 |
| 20260505053217 | 64 | 235 | 5.2 | 12.2 | 0.00 | 0.00 | 0.00 | 72 | 1014.9 |
| 20260505052716 | 64 | 234 | 5.2 | 11.3 | 0.00 | 0.00 | 0.00 | 72 | 1014.9 |
| 20260505052006 | 64 | 239 | 5.2 | 12.2 | 0.00 | 0.00 | 0.00 | 72 | 1014.8 |
| 20260505051505 | 64 | 189 | 2.6 | 8.7 | 0.00 | 0.00 | 0.00 | 72 | 1014.9 |
| 20260505051006 | 64 | 235 | 5.2 | 11.3 | 0.00 | 0.00 | 0.00 | 72 | 1014.8 |
| 20260505050716 | 64 | 212 | 2.6 | 11.3 | 0.00 | 0.00 | 0.00 | 72 | 1014.8 |
| 20260505041716 | 65 | 261 | 2.6 | 10.4 | 0.00 | 0.00 | 0.00 | 72 | 1014.7 |
| 20260505041006 | 65 | 248 | 2.6 | 11.3 | 0.00 | 0.00 | 0.00 | 71 | 1014.7 |
| 20260505040506 | 64 | 235 | 2.6 | 12.2 | 0.00 | 0.00 | 0.00 | 71 | 1014.7 |
| 20260505040221 | 64 | 211 | 2.6 | 8.7 | 0.00 | 0.00 | 0.00 | 71 | 1014.5 |
| 20260505035505 | 65 | 153 | 3.5 | 11.3 | 0.00 | 0.00 | 0.00 | 70 | 1014.4 |
| 20260505035215 | 65 | 228 | 3.5 | 7.0 | 0.00 | 0.00 | 0.00 | 69 | 1014.5 |
| 20260505034505 | 65 | 268 | 1.7 | 7.8 | 0.00 | 0.00 | 0.00 | 68 | 1014.5 |
| 20260505034006 | 65 | 232 | 3.5 | 12.2 | 0.00 | 0.00 | 0.00 | 67 | 1014.5 |
| 20260505033507 | 65 | 188 | 1.7 | 7.0 | 0.00 | 0.00 | 0.00 | 66 | 1014.4 |
| 20260505033007 | 65 | 170 | 1.7 | 12.2 | 0.00 | 0.00 | 0.00 | 65 | 1014.3 |
| 20260505032504 | 65 | 246 | 3.5 | 10.4 | 0.00 | 0.00 | 0.00 | 64 | 1014.4 |
| 20260505032217 | 65 | 218 | 2.6 | 12.2 | 0.00 | 0.00 | 0.00 | 63 | 1014.3 |
| 20260505031715 | 65 | 250 | 2.6 | 12.2 | 0.00 | 0.00 | 0.00 | 61 | 1014.3 |
| 20260505031006 | 65 | 191 | 1.7 | 11.3 | 0.00 | 0.00 | 0.00 | 60 | 1014.3 |
| 20260505030505 | 65 | 220 | 1.7 | 7.0 | 0.00 | 0.00 | 0.00 | 59 | 1014.3 |
| 20260505030006 | 65 | 201 | 2.6 | 7.0 | 0.00 | 0.00 | 0.00 | 59 | 1014.3 |
| 20260505025506 | 65 | 212 | 2.6 | 8.7 | 0.00 | 0.00 | 0.00 | 58 | 1014.3 |
| 20260505025216 | 64 | 240 | 0.9 | 4.3 | 0.00 | 0.00 | 0.00 | 60 | 1014.2 |
| 20260505024505 | 65 | 195 | 1.7 | 2.6 | 0.00 | 0.00 | 0.00 | 59 | 1014.1 |
| 20260505024005 | 65 | 237 | 1.7 | 5.2 | 0.00 | 0.00 | 0.00 | 58 | 1014.1 |
| 20260505023506 | 65 | 220 | 1.7 | 4.3 | 0.00 | 0.00 | 0.00 | 58 | 1014.1 |
| 20260505023006 | 65 | 177 | 2.6 | 5.2 | 0.00 | 0.00 | 0.00 | 58 | 1014.0 |
| 20260505022504 | 65 | 211 | 1.7 | 5.2 | 0.00 | 0.00 | 0.00 | 59 | 1014.0 |
| 20260505022216 | 65 | 201 | 0.9 | 4.3 | 0.00 | 0.00 | 0.00 | 59 | 1013.9 |
| 20260505021505 | 65 | 238 | 2.6 | 5.2 | 0.00 | 0.00 | 0.00 | 59 | 1013.8 |
| 20260505021216 | 65 | 227 | 1.7 | 6.1 | 0.00 | 0.00 | 0.00 | 59 | 1013.8 |
| 20260505020505 | 65 | 230 | 0.9 | 2.6 | 0.00 | 0.00 | 0.00 | 59 | 1013.8 |
| 20260505020005 | 65 | 158 | 0.9 | 4.3 | 0.00 | 0.00 | 0.00 | 58 | 1013.8 |
| 20260505015505 | 65 | 272 | 1.7 | 6.1 | 0.00 | 0.00 | 0.00 | 60 | 1013.8 |
| 20260505015004 | 66 | 223 | 1.7 | 6.1 | 0.00 | 0.00 | 0.00 | 57 | 1013.6 |
| 20260505014504 | 66 | 205 | 1.7 | 5.2 | 0.00 | 0.00 | 0.00 | 57 | 1013.6 |
| 20260505014008 | 66 | 226 | 0.9 | 5.2 | 0.00 | 0.00 | 0.00 | 58 | 1013.6 |
| 20260505013505 | 66 | 213 | 0.9 | 2.6 | 0.00 | 0.00 | 0.00 | 57 | 1013.6 |
| 20260505013007 | 66 | 211 | 1.7 | 5.2 | 0.00 | 0.00 | 0.00 | 56 | 1013.6 |
| 20260505012716 | 66 | 320 | 0.0 | 4.3 | 0.00 | 0.00 | 0.00 | 56 | 1013.6 |
| 20260505012006 | 66 | 221 | 0.9 | 2.6 | 0.00 | 0.00 | 0.00 | 56 | 1013.6 |
| 20260505011716 | 66 | 201 | 0.9 | 2.6 | 0.00 | 0.00 | 0.00 | 55 | 1013.5 |
| 20260505011217 | 66 | 192 | 0.9 | 2.6 | 0.00 | 0.00 | 0.00 | 57 | 1013.5 |
| 20260505010506 | 66 | 178 | 1.7 | 1.7 | 0.00 | 0.00 | 0.00 | 57 | 1013.4 |
| 20260505010217 | 66 | 174 | 0.9 | 2.6 | 0.00 | 0.00 | 0.00 | 57 | 1013.5 |
| 20260505005504 | 66 | 183 | 1.7 | 2.6 | 0.00 | 0.00 | 0.00 | 57 | 1013.5 |
| 20260505005007 | 66 | 198 | 1.7 | 4.3 | 0.00 | 0.00 | 0.00 | 57 | 1013.4 |
| 20260505004505 | 66 | 194 | 0.9 | 1.7 | 0.00 | 0.00 | 0.00 | 57 | 1013.4 |
| 20260505004008 | 66 | 191 | 0.9 | 2.6 | 0.00 | 0.00 | 0.00 | 56 | 1013.4 |
| 20260505003715 | 66 | 231 | 0.9 | 2.6 | 0.00 | 0.00 | 0.00 | 57 | 1013.4 |
| 20260505003006 | 67 | 209 | 0.9 | 2.6 | 0.00 | 0.00 | 0.00 | 55 | 1013.3 |
| 20260505002505 | 67 | 170 | 0.9 | 1.7 | 0.00 | 0.00 | 0.00 | 55 | 1013.3 |
| 20260505002007 | 68 | 212 | 0.9 | 2.6 | 0.00 | 0.00 | 0.00 | 54 | 1013.2 |
| 20260505001505 | 68 | 231 | 1.7 | 2.6 | 0.00 | 0.00 | 0.00 | 53 | 1013.1 |
| 20260505001005 | 68 | 240 | 0.9 | 4.3 | 0.00 | 0.00 | 0.00 | 52 | 1013.0 |
| 20260505000507 | 69 | 240 | 1.7 | 2.6 | 0.00 | 0.00 | 0.00 | 53 | 1013.0 |
| 20260505000218 | 69 | 231 | 0.9 | 1.7 | 0.00 | 0.00 | 0.00 | 52 | 1012.9 |
| 20260504235715 | 70 | 199 | 0.9 | 0.9 | 0.00 | 0.00 | 0.00 | 51 | 1012.9 |